datetime,flow
1937-10-01,65.0
1937-10-02,65.0
1937-10-03,65.0
1937-10-04,65.0
1937-10-05,65.0
1937-10-06,65.0
1937-10-07,65.0
1937-10-08,65.0
1937-10-09,65.0
1937-10-10,65.0
1937-10-11,65.0
1937-10-12,65.0
1937-10-13,65.0
1937-10-14,65.0
1937-10-15,65.0
1937-10-16,65.0
1937-10-17,65.0
1937-10-18,65.0
1937-10-19,65.0
1937-10-20,65.0
1937-10-21,65.0
1937-10-22,65.0
1937-10-23,65.0
1937-10-24,65.0
1937-10-25,65.0
1937-10-26,65.0
1937-10-27,65.0
1937-10-28,65.0
1937-10-29,65.0
1937-10-30,65.0
1937-10-31,65.0
1937-11-01,60.0
1937-11-02,60.0
1937-11-03,60.0
1937-11-04,60.0
1937-11-05,56.0
1937-11-06,60.0
1937-11-07,71.0
1937-11-08,51.0
1937-11-09,64.0
1937-11-10,57.0
1937-11-11,54.0
1937-11-12,56.0
1937-11-13,54.0
1937-11-14,57.0
1937-11-15,60.0
1937-11-16,50.0
1937-11-17,66.0
1937-11-18,64.0
1937-11-19,66.0
1937-11-20,71.0
1937-11-21,56.0
1937-11-22,49.0
1937-11-23,57.0
1937-11-24,60.0
1937-11-25,66.0
1937-11-26,62.0
1937-11-27,59.0
1937-11-28,59.0
1937-11-29,60.0
1937-11-30,62.0
1937-12-01,57.0
1937-12-02,56.0
1937-12-03,56.0
1937-12-04,59.0
1937-12-05,57.0
1937-12-06,56.0
1937-12-07,54.0
1937-12-08,56.0
1937-12-09,54.0
1937-12-10,53.0
1937-12-11,57.0
1937-12-12,60.0
1937-12-13,57.0
1937-12-14,56.0
1937-12-15,53.0
1937-12-16,50.0
1937-12-17,51.0
1937-12-18,53.0
1937-12-19,54.0
1937-12-20,57.0
1937-12-21,38.0
1937-12-22,51.0
1937-12-23,44.0
1937-12-24,53.0
1937-12-25,54.0
1937-12-26,59.0
1937-12-27,60.0
1937-12-28,56.0
1937-12-29,53.0
1937-12-30,56.0
1937-12-31,53.0
1938-01-01,50.0
1938-01-02,51.0
1938-01-03,53.0
1938-01-04,50.0
1938-01-05,45.0
1938-01-06,40.0
1938-01-07,32.0
1938-01-08,35.0
1938-01-09,42.0
1938-01-10,45.0
1938-01-11,44.0
1938-01-12,47.0
1938-01-13,42.0
1938-01-14,40.0
1938-01-15,43.0
1938-01-16,44.0
1938-01-17,45.0
1938-01-18,47.0
1938-01-19,45.0
1938-01-20,46.0
1938-01-21,39.0
1938-01-22,47.0
1938-01-23,47.0
1938-01-24,41.0
1938-01-25,40.0
1938-01-26,43.0
1938-01-27,47.0
1938-01-28,46.0
1938-01-29,44.0
1938-01-30,43.0
1938-01-31,43.0
1938-02-01,44.0
1938-02-02,46.0
1938-02-03,49.0
1938-02-04,51.0
1938-02-05,46.0
1938-02-06,49.0
1938-02-07,50.0
1938-02-08,50.0
1938-02-09,50.0
1938-02-10,46.0
1938-02-11,49.0
1938-02-12,43.0
1938-02-13,40.0
1938-02-14,44.0
1938-02-15,42.0
1938-02-16,40.0
1938-02-17,40.0
1938-02-18,40.0
1938-02-19,42.0
1938-02-20,39.0
1938-02-21,39.0
1938-02-22,42.0
1938-02-23,41.0
1938-02-24,42.0
1938-02-25,40.0
1938-02-26,40.0
1938-02-27,42.0
1938-02-28,41.0
1938-03-01,40.0
1938-03-02,43.0
1938-03-03,42.0
1938-03-04,42.0
1938-03-05,39.0
1938-03-06,41.0
1938-03-07,50.0
1938-03-08,46.0
1938-03-09,50.0
1938-03-10,43.0
1938-03-11,42.0
1938-03-12,43.0
1938-03-13,46.0
1938-03-14,44.0
1938-03-15,47.0
1938-03-16,54.0
1938-03-17,43.0
1938-03-18,38.0
1938-03-19,46.0
1938-03-20,46.0
1938-03-21,46.0
1938-03-22,40.0
1938-03-23,43.0
1938-03-24,42.0
1938-03-25,47.0
1938-03-26,42.0
1938-03-27,43.0
1938-03-28,47.0
1938-03-29,34.0
1938-03-30,54.0
1938-03-31,43.0
1938-04-01,46.0
1938-04-02,53.0
1938-04-03,43.0
1938-04-04,41.0
1938-04-05,53.0
1938-04-06,42.0
1938-04-07,44.0
1938-04-08,36.0
1938-04-09,44.0
1938-04-10,43.0
1938-04-11,47.0
1938-04-12,57.0
1938-04-13,56.0
1938-04-14,56.0
1938-04-15,60.0
1938-04-16,71.0
1938-04-17,71.0
1938-04-18,103.0
1938-04-19,117.0
1938-04-20,130.0
1938-04-21,115.0
1938-04-22,133.0
1938-04-23,163.0
1938-04-24,169.0
1938-04-25,143.0
1938-04-26,163.0
1938-04-27,169.0
1938-04-28,172.0
1938-04-29,214.0
1938-04-30,274.0
1938-05-01,250.0
1938-05-02,211.0
1938-05-03,204.0
1938-05-04,201.0
1938-05-05,143.0
1938-05-06,160.0
1938-05-07,127.0
1938-05-08,130.0
1938-05-09,140.0
1938-05-10,133.0
1938-05-11,140.0
1938-05-12,143.0
1938-05-13,201.0
1938-05-14,289.0
1938-05-15,466.0
1938-05-16,635.0
1938-05-17,630.0
1938-05-18,560.0
1938-05-19,466.0
1938-05-20,395.0
1938-05-21,367.0
1938-05-22,324.0
1938-05-23,343.0
1938-05-24,432.0
1938-05-25,538.0
1938-05-26,1100.0
1938-05-27,1050.0
1938-05-28,1300.0
1938-05-29,1460.0
1938-05-30,1160.0
1938-05-31,1460.0
1938-06-01,1280.0
1938-06-02,1560.0
1938-06-03,1350.0
1938-06-04,1790.0
1938-06-05,1360.0
1938-06-06,1260.0
1938-06-07,1180.0
1938-06-08,976.0
1938-06-09,1040.0
1938-06-10,1010.0
1938-06-11,840.0
1938-06-12,790.0
1938-06-13,750.0
1938-06-14,600.0
1938-06-15,582.0
1938-06-16,605.0
1938-06-17,578.0
1938-06-18,620.0
1938-06-19,600.0
1938-06-20,564.0
1938-06-21,526.0
1938-06-22,496.0
1938-06-23,466.0
1938-06-24,453.0
1938-06-25,449.0
1938-06-26,424.0
1938-06-27,407.0
1938-06-28,420.0
1938-06-29,569.0
1938-06-30,436.0
1938-07-01,343.0
1938-07-02,324.0
1938-07-03,312.0
1938-07-04,300.0
1938-07-05,285.0
1938-07-06,270.0
1938-07-07,245.0
1938-07-08,231.0
1938-07-09,218.0
1938-07-10,207.0
1938-07-11,201.0
1938-07-12,204.0
1938-07-13,194.0
1938-07-14,289.0
1938-07-15,242.0
1938-07-16,198.0
1938-07-17,188.0
1938-07-18,182.0
1938-07-19,170.0
1938-07-20,163.0
1938-07-21,175.0
1938-07-22,146.0
1938-07-23,135.0
1938-07-24,125.0
1938-07-25,143.0
1938-07-26,135.0
1938-07-27,172.0
1938-07-28,175.0
1938-07-29,160.0
1938-07-30,140.0
1938-07-31,125.0
1938-08-01,130.0
1938-08-02,122.0
1938-08-03,115.0
1938-08-04,110.0
1938-08-05,108.0
1938-08-06,105.0
1938-08-07,110.0
1938-08-08,117.0
1938-08-09,125.0
1938-08-10,140.0
1938-08-11,138.0
1938-08-12,122.0
1938-08-13,117.0
1938-08-14,110.0
1938-08-15,108.0
1938-08-16,106.0
1938-08-17,101.0
1938-08-18,86.0
1938-08-19,86.0
1938-08-20,84.0
1938-08-21,82.0
1938-08-22,82.0
1938-08-23,84.0
1938-08-24,88.0
1938-08-25,92.0
1938-08-26,99.0
1938-08-27,94.0
1938-08-28,96.0
1938-08-29,94.0
1938-08-30,92.0
1938-08-31,106.0
1938-09-01,122.0
1938-09-02,127.0
1938-09-03,90.0
1938-09-04,100.0
1938-09-05,120.0
1938-09-06,92.0
1938-09-07,115.0
1938-09-08,135.0
1938-09-09,96.0
1938-09-10,88.0
1938-09-11,92.0
1938-09-12,94.0
1938-09-13,86.0
1938-09-14,84.0
1938-09-15,74.0
1938-09-16,72.0
1938-09-17,71.0
1938-09-18,71.0
1938-09-19,69.0
1938-09-20,71.0
1938-09-21,69.0
1938-09-22,67.0
1938-09-23,65.0
1938-09-24,67.0
1938-09-25,67.0
1938-09-26,64.0
1938-09-27,62.0
1938-09-28,60.0
1938-09-29,60.0
1938-09-30,60.0
1938-10-01,66.0
1938-10-02,80.0
1938-10-03,90.0
1938-10-04,92.0
1938-10-05,86.0
1938-10-06,106.0
1938-10-07,94.0
1938-10-08,96.0
1938-10-09,92.0
1938-10-10,86.0
1938-10-11,90.0
1938-10-12,86.0
1938-10-13,84.0
1938-10-14,90.0
1938-10-15,166.0
1938-10-16,188.0
1938-10-17,149.0
1938-10-18,140.0
1938-10-19,127.0
1938-10-20,117.0
1938-10-21,110.0
1938-10-22,101.0
1938-10-23,94.0
1938-10-24,90.0
1938-10-25,86.0
1938-10-26,90.0
1938-10-27,88.0
1938-10-28,86.0
1938-10-29,90.0
1938-10-30,88.0
1938-10-31,101.0
1938-11-01,94.0
1938-11-02,90.0
1938-11-03,84.0
1938-11-04,94.0
1938-11-05,88.0
1938-11-06,78.0
1938-11-07,80.0
1938-11-08,80.0
1938-11-09,84.0
1938-11-10,88.0
1938-11-11,90.0
1938-11-12,94.0
1938-11-13,90.0
1938-11-14,88.0
1938-11-15,84.0
1938-11-16,84.0
1938-11-17,86.0
1938-11-18,99.0
1938-11-19,96.0
1938-11-20,84.0
1938-11-21,88.0
1938-11-22,90.0
1938-11-23,47.0
1938-11-24,50.0
1938-11-25,65.0
1938-11-26,70.0
1938-11-27,70.0
1938-11-28,65.0
1938-11-29,70.0
1938-11-30,70.0
1938-12-01,70.0
1938-12-02,65.0
1938-12-03,70.0
1938-12-04,65.0
1938-12-05,65.0
1938-12-06,65.0
1938-12-07,65.0
1938-12-08,72.0
1938-12-09,56.0
1938-12-10,72.0
1938-12-11,55.0
1938-12-12,50.0
1938-12-13,40.0
1938-12-14,45.0
1938-12-15,65.0
1938-12-16,65.0
1938-12-17,60.0
1938-12-18,60.0
1938-12-19,65.0
1938-12-20,65.0
1938-12-21,65.0
1938-12-22,60.0
1938-12-23,55.0
1938-12-24,60.0
1938-12-25,60.0
1938-12-26,55.0
1938-12-27,55.0
1938-12-28,55.0
1938-12-29,60.0
1938-12-30,62.0
1938-12-31,57.0
1939-01-01,66.0
1939-01-02,64.0
1939-01-03,56.0
1939-01-04,53.0
1939-01-05,62.0
1939-01-06,57.0
1939-01-07,59.0
1939-01-08,62.0
1939-01-09,64.0
1939-01-10,44.0
1939-01-11,64.0
1939-01-12,67.0
1939-01-13,62.0
1939-01-14,56.0
1939-01-15,47.0
1939-01-16,60.0
1939-01-17,62.0
1939-01-18,56.0
1939-01-19,53.0
1939-01-20,54.0
1939-01-21,57.0
1939-01-22,72.0
1939-01-23,54.0
1939-01-24,54.0
1939-01-25,59.0
1939-01-26,47.0
1939-01-27,51.0
1939-01-28,53.0
1939-01-29,49.0
1939-01-30,47.0
1939-01-31,56.0
1939-02-01,60.0
1939-02-02,64.0
1939-02-03,58.0
1939-02-04,53.0
1939-02-05,54.0
1939-02-06,54.0
1939-02-07,51.0
1939-02-08,49.0
1939-02-09,51.0
1939-02-10,53.0
1939-02-11,53.0
1939-02-12,53.0
1939-02-13,53.0
1939-02-14,53.0
1939-02-15,56.0
1939-02-16,59.0
1939-02-17,60.0
1939-02-18,60.0
1939-02-19,54.0
1939-02-20,47.0
1939-02-21,50.0
1939-02-22,53.0
1939-02-23,58.0
1939-02-24,64.0
1939-02-25,55.0
1939-02-26,46.0
1939-02-27,55.0
1939-02-28,64.0
1939-03-01,66.0
1939-03-02,67.0
1939-03-03,65.0
1939-03-04,64.0
1939-03-05,53.0
1939-03-06,42.0
1939-03-07,44.0
1939-03-08,46.0
1939-03-09,45.0
1939-03-10,44.0
1939-03-11,44.0
1939-03-12,43.0
1939-03-13,54.0
1939-03-14,64.0
1939-03-15,58.0
1939-03-16,51.0
1939-03-17,48.0
1939-03-18,46.0
1939-03-19,58.0
1939-03-20,69.0
1939-03-21,64.0
1939-03-22,59.0
1939-03-23,65.0
1939-03-24,71.0
1939-03-25,68.0
1939-03-26,64.0
1939-03-27,62.0
1939-03-28,59.0
1939-03-29,60.0
1939-03-30,60.0
1939-03-31,62.0
1939-04-01,64.0
1939-04-02,68.0
1939-04-03,71.0
1939-04-04,74.0
1939-04-05,78.0
1939-04-06,76.0
1939-04-07,74.0
1939-04-08,74.0
1939-04-09,74.0
1939-04-10,72.0
1939-04-11,71.0
1939-04-12,75.0
1939-04-13,72.0
1939-04-14,72.0
1939-04-15,72.0
1939-04-16,79.0
1939-04-17,74.0
1939-04-18,81.0
1939-04-19,97.0
1939-04-20,96.0
1939-04-21,122.0
1939-04-22,152.0
1939-04-23,172.0
1939-04-24,159.0
1939-04-25,142.0
1939-04-26,137.0
1939-04-27,150.0
1939-04-28,204.0
1939-04-29,272.0
1939-04-30,324.0
1939-05-01,365.0
1939-05-02,419.0
1939-05-03,423.0
1939-05-04,511.0
1939-05-05,588.0
1939-05-06,540.0
1939-05-07,519.0
1939-05-08,527.0
1939-05-09,601.0
1939-05-10,664.0
1939-05-11,642.0
1939-05-12,532.0
1939-05-13,486.0
1939-05-14,570.0
1939-05-15,668.0
1939-05-16,673.0
1939-05-17,601.0
1939-05-18,544.0
1939-05-19,601.0
1939-05-20,584.0
1939-05-21,549.0
1939-05-22,494.0
1939-05-23,446.0
1939-05-24,397.0
1939-05-25,354.0
1939-05-26,341.0
1939-05-27,361.0
1939-05-28,412.0
1939-05-29,490.0
1939-05-30,566.0
1939-05-31,562.0
1939-06-01,519.0
1939-06-02,434.0
1939-06-03,431.0
1939-06-04,454.0
1939-06-05,415.0
1939-06-06,365.0
1939-06-07,308.0
1939-06-08,290.0
1939-06-09,293.0
1939-06-10,266.0
1939-06-11,266.0
1939-06-12,269.0
1939-06-13,278.0
1939-06-14,290.0
1939-06-15,275.0
1939-06-16,234.0
1939-06-17,232.0
1939-06-18,210.0
1939-06-19,197.0
1939-06-20,191.0
1939-06-21,177.0
1939-06-22,172.0
1939-06-23,172.0
1939-06-24,175.0
1939-06-25,179.0
1939-06-26,172.0
1939-06-27,163.0
1939-06-28,159.0
1939-06-29,154.0
1939-06-30,152.0
1939-07-01,149.0
1939-07-02,145.0
1939-07-03,139.0
1939-07-04,136.0
1939-07-05,131.0
1939-07-06,128.0
1939-07-07,126.0
1939-07-08,120.0
1939-07-09,117.0
1939-07-10,114.0
1939-07-11,114.0
1939-07-12,110.0
1939-07-13,107.0
1939-07-14,104.0
1939-07-15,101.0
1939-07-16,97.0
1939-07-17,94.0
1939-07-18,93.0
1939-07-19,89.0
1939-07-20,87.0
1939-07-21,84.0
1939-07-22,81.0
1939-07-23,80.0
1939-07-24,79.0
1939-07-25,80.0
1939-07-26,79.0
1939-07-27,80.0
1939-07-28,80.0
1939-07-29,94.0
1939-07-30,105.0
1939-07-31,101.0
1939-08-01,87.0
1939-08-02,83.0
1939-08-03,79.0
1939-08-04,76.0
1939-08-05,74.0
1939-08-06,80.0
1939-08-07,89.0
1939-08-08,76.0
1939-08-09,70.0
1939-08-10,66.0
1939-08-11,65.0
1939-08-12,64.0
1939-08-13,61.0
1939-08-14,63.0
1939-08-15,59.0
1939-08-16,58.0
1939-08-17,55.0
1939-08-18,56.0
1939-08-19,56.0
1939-08-20,55.0
1939-08-21,52.0
1939-08-22,51.0
1939-08-23,50.0
1939-08-24,50.0
1939-08-25,49.0
1939-08-26,49.0
1939-08-27,51.0
1939-08-28,52.0
1939-08-29,63.0
1939-08-30,59.0
1939-08-31,54.0
1939-09-01,50.0
1939-09-02,47.0
1939-09-03,46.0
1939-09-04,48.0
1939-09-05,57.0
1939-09-06,80.0
1939-09-07,100.0
1939-09-08,81.0
1939-09-09,67.0
1939-09-10,63.0
1939-09-11,71.0
1939-09-12,80.0
1939-09-13,131.0
1939-09-14,120.0
1939-09-15,90.0
1939-09-16,81.0
1939-09-17,76.0
1939-09-18,71.0
1939-09-19,69.0
1939-09-20,66.0
1939-09-21,66.0
1939-09-22,67.0
1939-09-23,69.0
1939-09-24,69.0
1939-09-25,84.0
1939-09-26,87.0
1939-09-27,74.0
1939-09-28,88.0
1939-09-29,88.0
1939-09-30,75.0
1939-10-01,74.0
1939-10-02,85.0
1939-10-03,89.0
1939-10-04,108.0
1939-10-05,99.0
1939-10-06,100.0
1939-10-07,97.0
1939-10-08,95.0
1939-10-09,92.0
1939-10-10,86.0
1939-10-11,85.0
1939-10-12,81.0
1939-10-13,82.0
1939-10-14,82.0
1939-10-15,81.0
1939-10-16,80.0
1939-10-17,79.0
1939-10-18,79.0
1939-10-19,75.0
1939-10-20,72.0
1939-10-21,72.0
1939-10-22,71.0
1939-10-23,71.0
1939-10-24,70.0
1939-10-25,72.0
1939-10-26,71.0
1939-10-27,68.0
1939-10-28,64.0
1939-10-29,70.0
1939-10-30,63.0
1939-10-31,68.0
1939-11-01,66.0
1939-11-02,64.0
1939-11-03,62.0
1939-11-04,62.0
1939-11-05,63.0
1939-11-06,61.0
1939-11-07,57.0
1939-11-08,57.0
1939-11-09,62.0
1939-11-10,48.0
1939-11-11,55.0
1939-11-12,55.0
1939-11-13,53.0
1939-11-14,52.0
1939-11-15,50.0
1939-11-16,46.0
1939-11-17,47.0
1939-11-18,45.0
1939-11-19,44.0
1939-11-20,49.0
1939-11-21,50.0
1939-11-22,47.0
1939-11-23,50.0
1939-11-24,48.0
1939-11-25,47.0
1939-11-26,46.0
1939-11-27,49.0
1939-11-28,48.0
1939-11-29,44.0
1939-11-30,42.0
1939-12-01,46.0
1939-12-02,43.0
1939-12-03,42.0
1939-12-04,42.0
1939-12-05,42.0
1939-12-06,42.0
1939-12-07,42.0
1939-12-08,43.0
1939-12-09,43.0
1939-12-10,43.0
1939-12-11,43.0
1939-12-12,36.0
1939-12-13,40.0
1939-12-14,39.0
1939-12-15,37.0
1939-12-16,37.0
1939-12-17,37.0
1939-12-18,35.0
1939-12-19,30.0
1939-12-20,33.0
1939-12-21,31.0
1939-12-22,29.0
1939-12-23,28.0
1939-12-24,30.0
1939-12-25,28.0
1939-12-26,27.0
1939-12-27,26.0
1939-12-28,25.0
1939-12-29,27.0
1939-12-30,29.0
1939-12-31,31.0
1940-01-01,33.0
1940-01-02,33.0
1940-01-03,32.0
1940-01-04,33.0
1940-01-05,32.0
1940-01-06,29.0
1940-01-07,35.0
1940-01-08,33.0
1940-01-09,33.0
1940-01-10,34.0
1940-01-11,34.0
1940-01-12,33.0
1940-01-13,32.0
1940-01-14,30.0
1940-01-15,29.0
1940-01-16,31.0
1940-01-17,30.0
1940-01-18,28.0
1940-01-19,28.0
1940-01-20,29.0
1940-01-21,30.0
1940-01-22,29.0
1940-01-23,28.0
1940-01-24,29.0
1940-01-25,30.0
1940-01-26,32.0
1940-01-27,34.0
1940-01-28,34.0
1940-01-29,33.0
1940-01-30,33.0
1940-01-31,34.0
1940-02-01,34.0
1940-02-02,34.0
1940-02-03,34.0
1940-02-04,34.0
1940-02-05,34.0
1940-02-06,34.0
1940-02-07,35.0
1940-02-08,34.0
1940-02-09,34.0
1940-02-10,34.0
1940-02-11,33.0
1940-02-12,32.0
1940-02-13,31.0
1940-02-14,32.0
1940-02-15,32.0
1940-02-16,33.0
1940-02-17,34.0
1940-02-18,34.0
1940-02-19,33.0
1940-02-20,33.0
1940-02-21,33.0
1940-02-22,34.0
1940-02-23,33.0
1940-02-24,34.0
1940-02-25,34.0
1940-02-26,35.0
1940-02-27,36.0
1940-02-28,36.0
1940-02-29,37.0
1940-03-01,37.0
1940-03-02,33.0
1940-03-03,37.0
1940-03-04,34.0
1940-03-05,36.0
1940-03-06,34.0
1940-03-07,34.0
1940-03-08,36.0
1940-03-09,34.0
1940-03-10,36.0
1940-03-11,36.0
1940-03-12,34.0
1940-03-13,33.0
1940-03-14,32.0
1940-03-15,34.0
1940-03-16,35.0
1940-03-17,36.0
1940-03-18,35.0
1940-03-19,37.0
1940-03-20,37.0
1940-03-21,38.0
1940-03-22,39.0
1940-03-23,40.0
1940-03-24,42.0
1940-03-25,44.0
1940-03-26,53.0
1940-03-27,52.0
1940-03-28,45.0
1940-03-29,42.0
1940-03-30,42.0
1940-03-31,42.0
1940-04-01,43.0
1940-04-02,44.0
1940-04-03,42.0
1940-04-04,42.0
1940-04-05,42.0
1940-04-06,44.0
1940-04-07,41.0
1940-04-08,43.0
1940-04-09,42.0
1940-04-10,44.0
1940-04-11,44.0
1940-04-12,43.0
1940-04-13,46.0
1940-04-14,53.0
1940-04-15,60.0
1940-04-16,56.0
1940-04-17,51.0
1940-04-18,55.0
1940-04-19,64.0
1940-04-20,79.0
1940-04-21,88.0
1940-04-22,90.0
1940-04-23,96.0
1940-04-24,102.0
1940-04-25,108.0
1940-04-26,106.0
1940-04-27,99.0
1940-04-28,95.0
1940-04-29,88.0
1940-04-30,81.0
1940-05-01,80.0
1940-05-02,96.0
1940-05-03,129.0
1940-05-04,172.0
1940-05-05,178.0
1940-05-06,163.0
1940-05-07,183.0
1940-05-08,220.0
1940-05-09,285.0
1940-05-10,413.0
1940-05-11,563.0
1940-05-12,696.0
1940-05-13,812.0
1940-05-14,836.0
1940-05-15,950.0
1940-05-16,1070.0
1940-05-17,1000.0
1940-05-18,902.0
1940-05-19,806.0
1940-05-20,723.0
1940-05-21,712.0
1940-05-22,623.0
1940-05-23,669.0
1940-05-24,685.0
1940-05-25,669.0
1940-05-26,690.0
1940-05-27,669.0
1940-05-28,576.0
1940-05-29,496.0
1940-05-30,474.0
1940-05-31,477.0
1940-06-01,462.0
1940-06-02,434.0
1940-06-03,386.0
1940-06-04,338.0
1940-06-05,317.0
1940-06-06,280.0
1940-06-07,258.0
1940-06-08,252.0
1940-06-09,234.0
1940-06-10,222.0
1940-06-11,222.0
1940-06-12,217.0
1940-06-13,215.0
1940-06-14,208.0
1940-06-15,198.0
1940-06-16,187.0
1940-06-17,172.0
1940-06-18,163.0
1940-06-19,157.0
1940-06-20,151.0
1940-06-21,144.0
1940-06-22,136.0
1940-06-23,129.0
1940-06-24,122.0
1940-06-25,116.0
1940-06-26,109.0
1940-06-27,106.0
1940-06-28,100.0
1940-06-29,96.0
1940-06-30,106.0
1940-07-01,124.0
1940-07-02,111.0
1940-07-03,103.0
1940-07-04,97.0
1940-07-05,95.0
1940-07-06,88.0
1940-07-07,85.0
1940-07-08,82.0
1940-07-09,80.0
1940-07-10,77.0
1940-07-11,75.0
1940-07-12,70.0
1940-07-13,71.0
1940-07-14,69.0
1940-07-15,69.0
1940-07-16,79.0
1940-07-17,92.0
1940-07-18,79.0
1940-07-19,77.0
1940-07-20,68.0
1940-07-21,65.0
1940-07-22,61.0
1940-07-23,58.0
1940-07-24,54.0
1940-07-25,53.0
1940-07-26,50.0
1940-07-27,49.0
1940-07-28,49.0
1940-07-29,48.0
1940-07-30,49.0
1940-07-31,49.0
1940-08-01,49.0
1940-08-02,48.0
1940-08-03,47.0
1940-08-04,47.0
1940-08-05,45.0
1940-08-06,46.0
1940-08-07,50.0
1940-08-08,51.0
1940-08-09,51.0
1940-08-10,49.0
1940-08-11,46.0
1940-08-12,44.0
1940-08-13,44.0
1940-08-14,44.0
1940-08-15,45.0
1940-08-16,47.0
1940-08-17,44.0
1940-08-18,41.0
1940-08-19,44.0
1940-08-20,50.0
1940-08-21,49.0
1940-08-22,49.0
1940-08-23,46.0
1940-08-24,47.0
1940-08-25,50.0
1940-08-26,54.0
1940-08-27,47.0
1940-08-28,43.0
1940-08-29,42.0
1940-08-30,39.0
1940-08-31,38.0
1940-09-01,39.0
1940-09-02,39.0
1940-09-03,48.0
1940-09-04,72.0
1940-09-05,79.0
1940-09-06,62.0
1940-09-07,61.0
1940-09-08,61.0
1940-09-09,59.0
1940-09-10,60.0
1940-09-11,58.0
1940-09-12,60.0
1940-09-13,71.0
1940-09-14,80.0
1940-09-15,76.0
1940-09-16,68.0
1940-09-17,70.0
1940-09-18,96.0
1940-09-19,106.0
1940-09-20,176.0
1940-09-21,180.0
1940-09-22,178.0
1940-09-23,155.0
1940-09-24,131.0
1940-09-25,124.0
1940-09-26,128.0
1940-09-27,119.0
1940-09-28,200.0
1940-09-29,234.0
1940-09-30,210.0
1940-10-01,205.0
1940-10-02,191.0
1940-10-03,184.0
1940-10-04,176.0
1940-10-05,171.0
1940-10-06,157.0
1940-10-07,151.0
1940-10-08,153.0
1940-10-09,169.0
1940-10-10,167.0
1940-10-11,161.0
1940-10-12,159.0
1940-10-13,151.0
1940-10-14,141.0
1940-10-15,134.0
1940-10-16,130.0
1940-10-17,127.0
1940-10-18,122.0
1940-10-19,118.0
1940-10-20,113.0
1940-10-21,111.0
1940-10-22,108.0
1940-10-23,105.0
1940-10-24,102.0
1940-10-25,100.0
1940-10-26,113.0
1940-10-27,125.0
1940-10-28,118.0
1940-10-29,104.0
1940-10-30,110.0
1940-10-31,99.0
1940-11-01,98.0
1940-11-02,98.0
1940-11-03,102.0
1940-11-04,99.0
1940-11-05,74.0
1940-11-06,96.0
1940-11-07,98.0
1940-11-08,90.0
1940-11-09,89.0
1940-11-10,82.0
1940-11-11,80.0
1940-11-12,77.0
1940-11-13,75.0
1940-11-14,80.0
1940-11-15,82.0
1940-11-16,80.0
1940-11-17,80.0
1940-11-18,80.0
1940-11-19,80.0
1940-11-20,75.0
1940-11-21,73.0
1940-11-22,64.0
1940-11-23,67.0
1940-11-24,67.0
1940-11-25,72.0
1940-11-26,63.0
1940-11-27,65.0
1940-11-28,69.0
1940-11-29,69.0
1940-11-30,69.0
1940-12-01,67.0
1940-12-02,65.0
1940-12-03,63.0
1940-12-04,63.0
1940-12-05,62.0
1940-12-06,62.0
1940-12-07,60.0
1940-12-08,59.0
1940-12-09,59.0
1940-12-10,47.0
1940-12-11,44.0
1940-12-12,48.0
1940-12-13,45.0
1940-12-14,50.0
1940-12-15,50.0
1940-12-16,50.0
1940-12-17,50.0
1940-12-18,50.0
1940-12-19,50.0
1940-12-20,50.0
1940-12-21,50.0
1940-12-22,50.0
1940-12-23,50.0
1940-12-24,50.0
1940-12-25,50.0
1940-12-26,50.0
1940-12-27,50.0
1940-12-28,50.0
1940-12-29,50.0
1940-12-30,50.0
1940-12-31,50.0
1941-01-01,45.0
1941-01-02,45.0
1941-01-03,45.0
1941-01-04,45.0
1941-01-05,45.0
1941-01-06,45.0
1941-01-07,45.0
1941-01-08,45.0
1941-01-09,45.0
1941-01-10,45.0
1941-01-11,45.0
1941-01-12,45.0
1941-01-13,45.0
1941-01-14,45.0
1941-01-15,45.0
1941-01-16,45.0
1941-01-17,45.0
1941-01-18,45.0
1941-01-19,45.0
1941-01-20,45.0
1941-01-21,45.0
1941-01-22,45.0
1941-01-23,45.0
1941-01-24,45.0
1941-01-25,45.0
1941-01-26,45.0
1941-01-27,45.0
1941-01-28,45.0
1941-01-29,45.0
1941-01-30,45.0
1941-01-31,45.0
1941-02-01,45.0
1941-02-02,45.0
1941-02-03,45.0
1941-02-04,45.0
1941-02-05,45.0
1941-02-06,45.0
1941-02-07,45.0
1941-02-08,45.0
1941-02-09,45.0
1941-02-10,45.0
1941-02-11,45.0
1941-02-12,45.0
1941-02-13,45.0
1941-02-14,45.0
1941-02-15,45.0
1941-02-16,50.0
1941-02-17,50.0
1941-02-18,50.0
1941-02-19,50.0
1941-02-20,50.0
1941-02-21,50.0
1941-02-22,50.0
1941-02-23,50.0
1941-02-24,50.0
1941-02-25,50.0
1941-02-26,50.0
1941-02-27,50.0
1941-02-28,50.0
1941-03-01,50.0
1941-03-02,50.0
1941-03-03,50.0
1941-03-04,50.0
1941-03-05,50.0
1941-03-06,50.0
1941-03-07,50.0
1941-03-08,50.0
1941-03-09,50.0
1941-03-10,45.0
1941-03-11,45.0
1941-03-12,45.0
1941-03-13,45.0
1941-03-14,45.0
1941-03-15,45.0
1941-03-16,46.0
1941-03-17,45.0
1941-03-18,48.0
1941-03-19,52.0
1941-03-20,52.0
1941-03-21,52.0
1941-03-22,55.0
1941-03-23,53.0
1941-03-24,52.0
1941-03-25,51.0
1941-03-26,46.0
1941-03-27,50.0
1941-03-28,54.0
1941-03-29,52.0
1941-03-30,53.0
1941-03-31,57.0
1941-04-01,62.0
1941-04-02,57.0
1941-04-03,57.0
1941-04-04,54.0
1941-04-05,62.0
1941-04-06,56.0
1941-04-07,56.0
1941-04-08,55.0
1941-04-09,56.0
1941-04-10,61.0
1941-04-11,59.0
1941-04-12,66.0
1941-04-13,65.0
1941-04-14,60.0
1941-04-15,60.0
1941-04-16,60.0
1941-04-17,50.0
1941-04-18,49.0
1941-04-19,52.0
1941-04-20,52.0
1941-04-21,52.0
1941-04-22,54.0
1941-04-23,56.0
1941-04-24,59.0
1941-04-25,60.0
1941-04-26,65.0
1941-04-27,75.0
1941-04-28,79.0
1941-04-29,93.0
1941-04-30,105.0
1941-05-01,108.0
1941-05-02,113.0
1941-05-03,129.0
1941-05-04,147.0
1941-05-05,149.0
1941-05-06,151.0
1941-05-07,143.0
1941-05-08,180.0
1941-05-09,244.0
1941-05-10,320.0
1941-05-11,423.0
1941-05-12,582.0
1941-05-13,804.0
1941-05-14,892.0
1941-05-15,749.0
1941-05-16,686.0
1941-05-17,785.0
1941-05-18,969.0
1941-05-19,731.0
1941-05-20,596.0
1941-05-21,630.0
1941-05-22,830.0
1941-05-23,1140.0
1941-05-24,1150.0
1941-05-25,1130.0
1941-05-26,1300.0
1941-05-27,1150.0
1941-05-28,892.0
1941-05-29,731.0
1941-05-30,692.0
1941-05-31,692.0
1941-06-01,714.0
1941-06-02,785.0
1941-06-03,871.0
1941-06-04,906.0
1941-06-05,792.0
1941-06-06,714.0
1941-06-07,755.0
1941-06-08,676.0
1941-06-09,640.0
1941-06-10,568.0
1941-06-11,550.0
1941-06-12,635.0
1941-06-13,725.0
1941-06-14,792.0
1941-06-15,779.0
1941-06-16,892.0
1941-06-17,1100.0
1941-06-18,1300.0
1941-06-19,1090.0
1941-06-20,1050.0
1941-06-21,1070.0
1941-06-22,990.0
1941-06-23,941.0
1941-06-24,899.0
1941-06-25,871.0
1941-06-26,698.0
1941-06-27,620.0
1941-06-28,540.0
1941-06-29,481.0
1941-06-30,457.0
1941-07-01,506.0
1941-07-02,445.0
1941-07-03,415.0
1941-07-04,398.0
1941-07-05,384.0
1941-07-06,370.0
1941-07-07,367.0
1941-07-08,357.0
1941-07-09,332.0
1941-07-10,308.0
1941-07-11,297.0
1941-07-12,294.0
1941-07-13,283.0
1941-07-14,314.0
1941-07-15,267.0
1941-07-16,246.0
1941-07-17,241.0
1941-07-18,231.0
1941-07-19,264.0
1941-07-20,291.0
1941-07-21,234.0
1941-07-22,217.0
1941-07-23,207.0
1941-07-24,207.0
1941-07-25,202.0
1941-07-26,224.0
1941-07-27,214.0
1941-07-28,191.0
1941-07-29,174.0
1941-07-30,163.0
1941-07-31,157.0
1941-08-01,153.0
1941-08-02,145.0
1941-08-03,139.0
1941-08-04,134.0
1941-08-05,134.0
1941-08-06,134.0
1941-08-07,141.0
1941-08-08,163.0
1941-08-09,163.0
1941-08-10,205.0
1941-08-11,174.0
1941-08-12,171.0
1941-08-13,149.0
1941-08-14,138.0
1941-08-15,143.0
1941-08-16,163.0
1941-08-17,178.0
1941-08-18,149.0
1941-08-19,136.0
1941-08-20,132.0
1941-08-21,129.0
1941-08-22,139.0
1941-08-23,134.0
1941-08-24,125.0
1941-08-25,157.0
1941-08-26,157.0
1941-08-27,130.0
1941-08-28,120.0
1941-08-29,113.0
1941-08-30,132.0
1941-08-31,132.0
1941-09-01,118.0
1941-09-02,111.0
1941-09-03,108.0
1941-09-04,111.0
1941-09-05,106.0
1941-09-06,102.0
1941-09-07,98.0
1941-09-08,96.0
1941-09-09,94.0
1941-09-10,90.0
1941-09-11,87.0
1941-09-12,83.0
1941-09-13,85.0
1941-09-14,90.0
1941-09-15,89.0
1941-09-16,83.0
1941-09-17,80.0
1941-09-18,92.0
1941-09-19,96.0
1941-09-20,83.0
1941-09-21,79.0
1941-09-22,99.0
1941-09-23,111.0
1941-09-24,99.0
1941-09-25,100.0
1941-09-26,104.0
1941-09-27,96.0
1941-09-28,90.0
1941-09-29,87.0
1941-09-30,82.0
1941-10-01,82.0
1941-10-02,87.0
1941-10-03,85.0
1941-10-04,98.0
1941-10-05,99.0
1941-10-06,92.0